WAH720 KLAX-PHOG

Flight info

Callsign WAH720
Flight time N/A
Altitude 34000
Route SUMMR2 DINTY DUETS R576 DIALO/N0478F360 R576 DENNS LNDHY1
Aircraft A339/H-SADE1E2E3GHIJ3J5M1P2RWXY/LB2D1

Departure

Time N/A
Airport Los Angeles International Airport (KLAX)

Arrival

Time 2026-04-24 23:17
Airport Kahului International Airport (PHOG)
Time Latitude Longitude Altitude Speed Heading
2026-04-24 18:54 32.96300 -124.99220 36083 ft 410 kts 254°
2026-04-24 18:55 32.94066 -125.09029 36086 ft 410 kts 254°
2026-04-24 18:56 32.92577 -125.15546 36085 ft 410 kts 254°
2026-04-24 18:56 32.91078 -125.22102 36098 ft 410 kts 254°
2026-04-24 18:57 32.89578 -125.28625 36100 ft 410 kts 254°
2026-04-24 18:57 32.88076 -125.35153 36094 ft 410 kts 254°
2026-04-24 18:58 32.86573 -125.41670 36107 ft 410 kts 254°
2026-04-24 18:58 32.85066 -125.48178 36101 ft 411 kts 254°
2026-04-24 18:59 32.83548 -125.54726 36107 ft 411 kts 254°
2026-04-24 18:59 32.82039 -125.61217 36109 ft 411 kts 254°
2026-04-24 19:00 32.80513 -125.67746 36304 ft 412 kts 253°
2026-04-24 19:00 32.79751 -125.71017 36663 ft 410 kts 253°
2026-04-24 19:00 32.78984 -125.74295 37017 ft 408 kts 253°
2026-04-24 19:00 32.78227 -125.77528 37332 ft 407 kts 253°
2026-04-24 19:01 32.77470 -125.80759 37632 ft 406 kts 253°
2026-04-24 19:01 32.76715 -125.83980 37925 ft 405 kts 253°
2026-04-24 19:01 32.75962 -125.87170 38116 ft 406 kts 253°
2026-04-24 19:02 32.74702 -125.92529 38118 ft 405 kts 253°
2026-04-24 19:02 32.72930 -126.00028 38118 ft 406 kts 253°
2026-04-24 19:03 32.71406 -126.06463 38126 ft 406 kts 253°
2026-04-24 19:03 32.69881 -126.12892 38123 ft 406 kts 253°
2026-04-24 19:04 32.68350 -126.19322 38085 ft 405 kts 253°
2026-04-24 19:04 32.66821 -126.25734 38123 ft 406 kts 253°
2026-04-24 19:05 32.65279 -126.32179 38118 ft 406 kts 253°
2026-04-24 19:05 32.63738 -126.38618 38129 ft 406 kts 253°
2026-04-24 19:06 32.62191 -126.45046 38115 ft 406 kts 253°
2026-04-24 19:06 32.60652 -126.51439 38114 ft 407 kts 253°
2026-04-24 19:07 32.59095 -126.57883 38192 ft 406 kts 253°
2026-04-24 19:07 32.58313 -126.61118 38042 ft 406 kts 253°
2026-04-24 19:07 32.57798 -126.63244 38089 ft 407 kts 253°
2026-04-24 19:08 32.55966 -126.70789 38120 ft 408 kts 252°
2026-04-24 19:08 32.54406 -126.77206 38121 ft 408 kts 253°
2026-04-24 19:09 32.52840 -126.83631 38119 ft 408 kts 252°
2026-04-24 19:09 32.51261 -126.90086 38119 ft 408 kts 252°
2026-04-24 19:10 32.49681 -126.96538 38119 ft 408 kts 252°
2026-04-24 19:10 32.48897 -126.99730 38246 ft 408 kts 252°
2026-04-24 19:10 32.48106 -127.02949 38088 ft 407 kts 252°
2026-04-24 19:11 32.46521 -127.09384 38124 ft 407 kts 252°
2026-04-24 19:11 32.44935 -127.15808 38121 ft 408 kts 252°
2026-04-24 19:12 32.43341 -127.22252 38122 ft 408 kts 252°
2026-04-24 19:12 32.42544 -127.25465 38283 ft 408 kts 252°
2026-04-24 19:12 32.41741 -127.28702 38039 ft 407 kts 252°
2026-04-24 19:13 32.40412 -127.34042 38110 ft 408 kts 252°
2026-04-24 19:13 32.38551 -127.41515 38122 ft 409 kts 252°
2026-04-24 19:14 32.36937 -127.47982 38125 ft 409 kts 252°
2026-04-24 19:14 32.35327 -127.54410 38206 ft 409 kts 252°
2026-04-24 19:14 32.34524 -127.57607 37978 ft 408 kts 252°
2026-04-24 19:15 32.33719 -127.60817 38183 ft 409 kts 252°
2026-04-24 19:15 32.32904 -127.64056 37964 ft 408 kts 252°
2026-04-24 19:15 32.32101 -127.67241 38061 ft 409 kts 252°
2026-04-24 19:15 32.31289 -127.70460 38186 ft 409 kts 252°
2026-04-24 19:16 32.29674 -127.76865 38196 ft 409 kts 252°
2026-04-24 19:16 32.28038 -127.83326 38134 ft 409 kts 252°
2026-04-24 19:17 32.26419 -127.89703 38126 ft 408 kts 252°
2026-04-24 19:17 32.24781 -127.96150 37993 ft 409 kts 252°
2026-04-24 19:18 32.23962 -127.99365 38228 ft 410 kts 252°
2026-04-24 19:18 32.23145 -128.02567 38158 ft 410 kts 252°
2026-04-24 19:18 32.22327 -128.05774 37986 ft 409 kts 252°
2026-04-24 19:18 32.21509 -128.08971 38074 ft 410 kts 252°
2026-04-24 19:19 32.19859 -128.15422 38098 ft 411 kts 252°
2026-04-24 19:19 32.19032 -128.18637 38238 ft 410 kts 252°
2026-04-24 19:19 32.18216 -128.21814 38060 ft 410 kts 252°
2026-04-24 19:20 32.16561 -128.28249 38120 ft 411 kts 252°
2026-04-24 19:20 32.14904 -128.34672 38129 ft 410 kts 252°
2026-04-24 19:21 32.13238 -128.41118 38126 ft 409 kts 252°
2026-04-24 19:21 32.11585 -128.47502 38132 ft 410 kts 252°
2026-04-24 19:22 32.09924 -128.53896 38135 ft 410 kts 252°
2026-04-24 19:22 32.08254 -128.60313 38140 ft 410 kts 252°
2026-04-24 19:23 32.06582 -128.66719 38142 ft 410 kts 251°
2026-04-24 19:23 32.04900 -128.73152 38139 ft 410 kts 251°
2026-04-24 19:24 32.03230 -128.79527 38139 ft 410 kts 251°
2026-04-24 19:24 32.01543 -128.85947 38137 ft 411 kts 251°
2026-04-24 19:25 31.99859 -128.92349 38150 ft 411 kts 251°
2026-04-24 19:25 31.98167 -128.98755 38160 ft 410 kts 251°
2026-04-24 19:26 31.96471 -129.05168 38146 ft 409 kts 251°
2026-04-24 19:26 31.94784 -129.11530 38140 ft 410 kts 251°
2026-04-24 19:27 31.93078 -129.17955 38137 ft 410 kts 251°
2026-04-24 19:27 31.91381 -129.24327 38142 ft 410 kts 251°
2026-04-24 19:28 31.89677 -129.30718 38152 ft 411 kts 251°
2026-04-24 19:28 31.87966 -129.37111 38145 ft 411 kts 251°
2026-04-24 19:29 31.85396 -129.46692 38151 ft 411 kts 251°
2026-04-24 19:30 31.83674 -129.53093 38143 ft 411 kts 251°
2026-04-24 19:30 31.81952 -129.59488 38142 ft 412 kts 251°
2026-04-24 19:31 31.80211 -129.65929 38151 ft 412 kts 250°
2026-04-24 19:31 31.78483 -129.72304 38152 ft 412 kts 251°
2026-04-24 19:32 31.76745 -129.78713 38150 ft 412 kts 250°
2026-04-24 19:32 31.75008 -129.85098 38129 ft 412 kts 250°
2026-04-24 19:33 31.73253 -129.91538 38132 ft 412 kts 250°
2026-04-24 19:33 31.71517 -129.97896 38143 ft 412 kts 250°
2026-04-24 19:34 31.69767 -130.04288 38134 ft 412 kts 250°
2026-04-24 19:34 31.68014 -130.10673 38135 ft 413 kts 250°
2026-04-24 19:35 31.66260 -130.17058 38151 ft 413 kts 250°
2026-04-24 19:35 31.64491 -130.23468 38137 ft 413 kts 250°
2026-04-24 19:36 31.62719 -130.29890 38142 ft 413 kts 250°
2026-04-24 19:36 31.60953 -130.36267 38135 ft 414 kts 251°
2026-04-24 19:37 31.59174 -130.42679 38138 ft 414 kts 250°
2026-04-24 19:37 31.57406 -130.49045 38122 ft 414 kts 250°
2026-04-24 19:38 31.55618 -130.55467 38141 ft 415 kts 250°
2026-04-24 19:38 31.53821 -130.61896 38131 ft 415 kts 250°
2026-04-24 19:39 31.52030 -130.68295 38143 ft 416 kts 250°
2026-04-24 19:39 31.50232 -130.74704 38133 ft 416 kts 250°
2026-04-24 19:40 31.48421 -130.81151 38142 ft 416 kts 250°
2026-04-24 19:40 31.46615 -130.87563 38137 ft 417 kts 250°
2026-04-24 19:40 31.45703 -130.90796 38249 ft 417 kts 250°
2026-04-24 19:41 31.44803 -130.93985 38182 ft 416 kts 250°
2026-04-24 19:41 31.42990 -131.00389 38067 ft 416 kts 250°
2026-04-24 19:42 31.41165 -131.06828 38141 ft 417 kts 250°
2026-04-24 19:42 31.40255 -131.10036 38256 ft 417 kts 250°
2026-04-24 19:42 31.39342 -131.13252 38070 ft 416 kts 250°
2026-04-24 19:43 31.37520 -131.19655 38128 ft 417 kts 250°
2026-04-24 19:43 31.35691 -131.26065 38139 ft 417 kts 250°
2026-04-24 19:44 31.33854 -131.32486 38150 ft 417 kts 250°
2026-04-24 19:44 31.32014 -131.38905 38152 ft 418 kts 250°
2026-04-24 19:45 31.30172 -131.45323 38146 ft 418 kts 250°
2026-04-24 19:45 31.28322 -131.51758 38141 ft 418 kts 250°
2026-04-24 19:46 31.26469 -131.58180 38152 ft 418 kts 250°
2026-04-24 19:46 31.24615 -131.64603 38145 ft 417 kts 250°
2026-04-24 19:47 31.22761 -131.71001 38146 ft 417 kts 249°
2026-04-24 19:47 31.20910 -131.77383 38153 ft 417 kts 249°
2026-04-24 19:48 31.19044 -131.83797 38133 ft 417 kts 250°
2026-04-24 19:48 31.16256 -131.93367 38152 ft 417 kts 250°
2026-04-24 19:49 31.12517 -132.06155 38141 ft 417 kts 249°
2026-04-24 19:50 31.08764 -132.18912 38142 ft 417 kts 249°
2026-04-24 19:51 31.05937 -132.28488 38140 ft 417 kts 249°
2026-04-24 19:52 31.03108 -132.38039 38143 ft 417 kts 249°
2026-04-24 19:52 31.01224 -132.44389 38141 ft 417 kts 249°
2026-04-24 19:53 30.99329 -132.50764 38142 ft 417 kts 249°
2026-04-24 19:54 30.96482 -132.60306 38143 ft 417 kts 249°
2026-04-24 19:54 30.94569 -132.66704 38146 ft 418 kts 249°
2026-04-24 19:55 30.92979 -132.72014 38143 ft 417 kts 249°
2026-04-24 19:55 30.90753 -132.79440 38141 ft 417 kts 249°
2026-04-24 19:56 30.88845 -132.85777 38142 ft 417 kts 249°
2026-04-24 19:56 30.86931 -132.92134 38144 ft 417 kts 249°
2026-04-24 19:57 30.85013 -132.98483 38140 ft 418 kts 249°
2026-04-24 19:57 30.83081 -133.04860 38140 ft 417 kts 249°
2026-04-24 19:58 30.81157 -133.11209 38141 ft 417 kts 249°
2026-04-24 19:58 30.79233 -133.17551 38141 ft 418 kts 249°
2026-04-24 19:59 30.77303 -133.23888 38139 ft 418 kts 249°
2026-04-24 19:59 30.75363 -133.30247 38138 ft 418 kts 249°
2026-04-24 20:00 30.73415 -133.36620 38137 ft 418 kts 249°
2026-04-24 20:00 30.71470 -133.42972 38136 ft 418 kts 249°
2026-04-24 20:01 30.69526 -133.49300 38146 ft 419 kts 250°
2026-04-24 20:01 30.67570 -133.55667 38141 ft 419 kts 249°
2026-04-24 20:02 30.65941 -133.60960 38134 ft 420 kts 249°
2026-04-24 20:02 30.63644 -133.68399 38144 ft 420 kts 249°
2026-04-24 20:03 30.61678 -133.74754 38141 ft 419 kts 249°
2026-04-24 20:03 30.59716 -133.81099 38139 ft 420 kts 249°
2026-04-24 20:04 30.57728 -133.87491 38132 ft 419 kts 249°
2026-04-24 20:04 30.55756 -133.93826 38141 ft 420 kts 249°
2026-04-24 20:05 30.53772 -134.00191 38140 ft 421 kts 249°
2026-04-24 20:05 30.51786 -134.06546 38140 ft 421 kts 249°
2026-04-24 20:06 30.49792 -134.12921 38143 ft 421 kts 250°
2026-04-24 20:06 30.47797 -134.19286 38142 ft 421 kts 249°
2026-04-24 20:07 30.46129 -134.24596 38143 ft 422 kts 250°
2026-04-24 20:07 30.43799 -134.32001 38142 ft 422 kts 249°
2026-04-24 20:08 30.41778 -134.38399 38144 ft 422 kts 249°
2026-04-24 20:08 30.39774 -134.44739 38145 ft 423 kts 250°
2026-04-24 20:09 30.37742 -134.51149 38145 ft 423 kts 250°
2026-04-24 20:09 30.35728 -134.57507 38142 ft 422 kts 250°
2026-04-24 20:10 30.33696 -134.63896 38142 ft 423 kts 250°
2026-04-24 20:10 30.31667 -134.70271 38147 ft 424 kts 249°
2026-04-24 20:11 30.29639 -134.76628 38144 ft 424 kts 249°
2026-04-24 20:11 30.27596 -134.83012 38151 ft 423 kts 249°
2026-04-24 20:12 30.25552 -134.89392 38138 ft 424 kts 249°
2026-04-24 20:12 30.23504 -134.95781 38134 ft 424 kts 249°
2026-04-24 20:13 30.21457 -135.02136 38138 ft 426 kts 249°
2026-04-24 20:13 30.19385 -135.08563 38151 ft 426 kts 250°
2026-04-24 20:14 30.17333 -135.14922 38150 ft 425 kts 250°
2026-04-24 20:14 30.15271 -135.21298 38151 ft 425 kts 250°
2026-04-24 20:15 30.13202 -135.27686 38154 ft 425 kts 250°
2026-04-24 20:15 30.11128 -135.34074 38150 ft 425 kts 250°
2026-04-24 20:16 30.09050 -135.40463 38157 ft 426 kts 250°
2026-04-24 20:16 30.06974 -135.46832 38152 ft 425 kts 250°
2026-04-24 20:17 30.04884 -135.53229 38150 ft 426 kts 250°
2026-04-24 20:17 30.01763 -135.62772 38144 ft 427 kts 250°
2026-04-24 20:18 29.99667 -135.69157 38140 ft 426 kts 249°
2026-04-24 20:18 29.97570 -135.75537 38145 ft 426 kts 249°
2026-04-24 20:19 29.95468 -135.81915 38143 ft 427 kts 250°
2026-04-24 20:19 29.93360 -135.88306 38136 ft 426 kts 250°
2026-04-24 20:20 29.91267 -135.94644 38133 ft 426 kts 250°
2026-04-24 20:20 29.89163 -136.01000 38130 ft 427 kts 249°
2026-04-24 20:21 29.87042 -136.07387 38127 ft 427 kts 250°
2026-04-24 20:21 29.84911 -136.13794 38127 ft 427 kts 250°
2026-04-24 20:22 29.82800 -136.20138 38366 ft 427 kts 250°
2026-04-24 20:22 29.81730 -136.23334 38667 ft 425 kts 250°
2026-04-24 20:22 29.80672 -136.26500 38871 ft 424 kts 250°
2026-04-24 20:23 29.79622 -136.29645 39050 ft 425 kts 250°
2026-04-24 20:23 29.78564 -136.32816 39120 ft 425 kts 250°
2026-04-24 20:23 29.76445 -136.39143 39126 ft 426 kts 250°
2026-04-24 20:24 29.74322 -136.45473 39130 ft 426 kts 250°
2026-04-24 20:24 29.72176 -136.51854 39130 ft 427 kts 250°
2026-04-24 20:25 29.70049 -136.58170 39131 ft 427 kts 251°
2026-04-24 20:25 29.67899 -136.64543 39132 ft 427 kts 251°
2026-04-24 20:26 29.65754 -136.70891 39138 ft 428 kts 250°
2026-04-24 20:26 29.63609 -136.77226 39137 ft 428 kts 250°
2026-04-24 20:27 29.61449 -136.83595 39135 ft 428 kts 250°
2026-04-24 20:27 29.59291 -136.89938 39136 ft 428 kts 250°
2026-04-24 20:28 29.57128 -136.96294 39134 ft 428 kts 250°
2026-04-24 20:28 29.54960 -137.02647 39138 ft 430 kts 251°
2026-04-24 20:29 29.52771 -137.09055 39134 ft 429 kts 251°
2026-04-24 20:29 29.50602 -137.15389 39140 ft 429 kts 251°
2026-04-24 20:30 29.48428 -137.21727 39136 ft 429 kts 251°
2026-04-24 20:30 29.46249 -137.28070 39144 ft 428 kts 251°
2026-04-24 20:31 29.44069 -137.34402 39143 ft 428 kts 251°
2026-04-24 20:31 29.41871 -137.40775 39138 ft 429 kts 251°
2026-04-24 20:32 29.39682 -137.47113 39140 ft 430 kts 251°
2026-04-24 20:32 29.37466 -137.53516 39143 ft 438 kts 251°
2026-04-24 20:33 29.35210 -137.60023 39136 ft 443 kts 251°
2026-04-24 20:33 29.32938 -137.66562 39138 ft 443 kts 250°
2026-04-24 20:34 29.30662 -137.73096 39153 ft 443 kts 251°
2026-04-24 20:34 29.28375 -137.79654 39140 ft 444 kts 251°
2026-04-24 20:35 29.26096 -137.86182 39141 ft 444 kts 251°
2026-04-24 20:35 29.23807 -137.92723 39130 ft 444 kts 250°
2026-04-24 20:36 29.21517 -137.99252 39144 ft 444 kts 251°
2026-04-24 20:36 29.19221 -138.05786 39151 ft 444 kts 251°
2026-04-24 20:37 29.16908 -138.12360 39130 ft 444 kts 250°
2026-04-24 20:37 29.14615 -138.18869 39136 ft 444 kts 251°
2026-04-24 20:38 29.12290 -138.25449 39147 ft 446 kts 250°
2026-04-24 20:38 29.11142 -138.28699 39346 ft 445 kts 251°
2026-04-24 20:38 29.09988 -138.31955 39648 ft 443 kts 251°
2026-04-24 20:39 29.08825 -138.35239 39870 ft 442 kts 251°
2026-04-24 20:39 29.07674 -138.38486 40049 ft 442 kts 250°
2026-04-24 20:39 29.05375 -138.44960 40127 ft 443 kts 251°
2026-04-24 20:40 29.03058 -138.51469 40150 ft 443 kts 250°
2026-04-24 20:40 29.00740 -138.57976 40151 ft 444 kts 250°
2026-04-24 20:41 28.98422 -138.64462 40149 ft 443 kts 251°
2026-04-24 20:41 28.96100 -138.70955 40152 ft 443 kts 250°
2026-04-24 20:42 28.93775 -138.77449 40150 ft 443 kts 250°
2026-04-24 20:42 28.91432 -138.83968 40151 ft 444 kts 250°
2026-04-24 20:43 28.89096 -138.90468 40156 ft 443 kts 250°
2026-04-24 20:43 28.86754 -138.96971 40145 ft 444 kts 250°
2026-04-24 20:44 28.84424 -139.03424 40146 ft 444 kts 251°
2026-04-24 20:44 28.82066 -139.09946 40143 ft 444 kts 250°
2026-04-24 20:45 28.79716 -139.16435 40139 ft 445 kts 251°
2026-04-24 20:45 28.77353 -139.22952 40139 ft 445 kts 251°
2026-04-24 20:46 28.75003 -139.29417 40138 ft 445 kts 251°
2026-04-24 20:46 28.72627 -139.35945 40138 ft 446 kts 251°
2026-04-24 20:47 28.70255 -139.42448 40139 ft 446 kts 251°
2026-04-24 20:47 28.67871 -139.48959 40136 ft 447 kts 251°
2026-04-24 20:48 28.65488 -139.55440 40135 ft 446 kts 251°
2026-04-24 20:48 28.63086 -139.61969 40136 ft 447 kts 251°
2026-04-24 20:49 28.60694 -139.68462 40141 ft 447 kts 251°
2026-04-24 20:49 28.58288 -139.74977 40134 ft 448 kts 251°
2026-04-24 20:50 28.55877 -139.81500 40130 ft 448 kts 251°
2026-04-24 20:50 28.53474 -139.87988 40131 ft 447 kts 251°
2026-04-24 20:51 28.51065 -139.94479 40128 ft 447 kts 251°
2026-04-24 20:51 28.48647 -140.00987 40134 ft 448 kts 251°
2026-04-24 20:52 28.46234 -140.07468 40147 ft 447 kts 251°
2026-04-24 20:52 28.43812 -140.13957 40145 ft 447 kts 251°
2026-04-24 20:53 28.41382 -140.20465 40140 ft 448 kts 251°
2026-04-24 20:53 28.38947 -140.26967 40138 ft 448 kts 251°
2026-04-24 20:54 28.36505 -140.33485 40139 ft 449 kts 251°
2026-04-24 20:54 28.34059 -140.39998 40142 ft 449 kts 251°
2026-04-24 20:55 28.31624 -140.46472 40142 ft 449 kts 251°
2026-04-24 20:55 28.29175 -140.52969 40144 ft 450 kts 251°
2026-04-24 20:56 28.26711 -140.59499 40144 ft 450 kts 251°
2026-04-24 20:56 28.24246 -140.66013 40146 ft 450 kts 250°
2026-04-24 20:57 28.21784 -140.72511 40132 ft 450 kts 250°
2026-04-24 20:57 28.19313 -140.79022 40122 ft 450 kts 250°
2026-04-24 20:58 28.16853 -140.85492 40139 ft 450 kts 250°
2026-04-24 20:58 28.14380 -140.91992 40147 ft 451 kts 250°
2026-04-24 20:59 28.11897 -140.98505 40139 ft 451 kts 250°
2026-04-24 20:59 28.09421 -141.04985 40141 ft 451 kts 250°
2026-04-24 21:00 28.06934 -141.11485 40149 ft 452 kts 250°
2026-04-24 21:00 28.04427 -141.18024 40144 ft 452 kts 250°
2026-04-24 21:01 28.01930 -141.24528 40146 ft 452 kts 250°
2026-04-24 21:01 27.99417 -141.31058 40149 ft 452 kts 250°
2026-04-24 21:02 27.96908 -141.37569 40140 ft 452 kts 251°
2026-04-24 21:02 27.94413 -141.44035 40141 ft 451 kts 251°
2026-04-24 21:03 27.91903 -141.50529 40143 ft 450 kts 250°
2026-04-24 21:03 27.89409 -141.56967 40141 ft 451 kts 251°
2026-04-24 21:04 27.86894 -141.63451 40141 ft 450 kts 251°
2026-04-24 21:04 27.84385 -141.69910 40140 ft 450 kts 250°
2026-04-24 21:05 27.81872 -141.76369 40142 ft 450 kts 250°
2026-04-24 21:05 27.79363 -141.82805 40139 ft 450 kts 250°
2026-04-24 21:06 27.76840 -141.89264 40140 ft 450 kts 250°
2026-04-24 21:06 27.74322 -141.95705 40138 ft 450 kts 250°
2026-04-24 21:07 27.71794 -142.02156 40155 ft 450 kts 250°
2026-04-24 21:07 27.69264 -142.08604 40149 ft 450 kts 250°
2026-04-24 21:08 27.66740 -142.15028 40134 ft 451 kts 250°
2026-04-24 21:08 27.64194 -142.21493 40127 ft 452 kts 250°
2026-04-24 21:09 27.61641 -142.27969 40126 ft 452 kts 250°
2026-04-24 21:09 27.59087 -142.34435 40125 ft 452 kts 251°
2026-04-24 21:10 27.56551 -142.40846 40122 ft 451 kts 250°
2026-04-24 21:10 27.53990 -142.47308 40129 ft 451 kts 250°
2026-04-24 21:11 27.51429 -142.53761 40121 ft 451 kts 250°
2026-04-24 21:11 27.48881 -142.60169 40137 ft 451 kts 250°
2026-04-24 21:12 27.46742 -142.65541 40131 ft 451 kts 250°
2026-04-24 21:12 27.43760 -142.73018 40132 ft 451 kts 250°
2026-04-24 21:13 27.41191 -142.79454 40133 ft 451 kts 250°
2026-04-24 21:13 27.38610 -142.85908 40129 ft 452 kts 250°
2026-04-24 21:14 27.36042 -142.92313 40134 ft 452 kts 250°
2026-04-24 21:14 27.33457 -142.98749 40134 ft 452 kts 250°
2026-04-24 21:15 27.30868 -143.05190 40140 ft 453 kts 250°
2026-04-24 21:15 27.28276 -143.11627 40132 ft 453 kts 250°
2026-04-24 21:16 27.25692 -143.18031 40132 ft 452 kts 250°
2026-04-24 21:16 27.23093 -143.24466 40135 ft 453 kts 250°
2026-04-24 21:17 27.20498 -143.30878 40139 ft 452 kts 250°
2026-04-24 21:17 27.18339 -143.36204 40133 ft 451 kts 250°
2026-04-24 21:18 27.15309 -143.43668 40130 ft 451 kts 250°
2026-04-24 21:18 27.12715 -143.50049 40136 ft 451 kts 250°
2026-04-24 21:19 27.10106 -143.56456 40126 ft 451 kts 250°
2026-04-24 21:19 27.07513 -143.62817 40124 ft 451 kts 250°
2026-04-24 21:20 27.03600 -143.72389 40115 ft 451 kts 250°
2026-04-24 21:21 27.00976 -143.78793 40122 ft 451 kts 250°
2026-04-24 21:21 26.98359 -143.85176 40124 ft 451 kts 250°
2026-04-24 21:22 26.95738 -143.91560 40125 ft 452 kts 250°
2026-04-24 21:22 26.93125 -143.97911 40127 ft 452 kts 249°
2026-04-24 21:23 26.90485 -144.04318 40124 ft 453 kts 249°
2026-04-24 21:23 26.87854 -144.10695 40130 ft 453 kts 249°
2026-04-24 21:24 26.85210 -144.17090 40121 ft 453 kts 250°
2026-04-24 21:24 26.82580 -144.23441 40124 ft 453 kts 250°
2026-04-24 21:25 26.79931 -144.29834 40124 ft 453 kts 249°
2026-04-24 21:25 26.77288 -144.36202 40121 ft 454 kts 249°
2026-04-24 21:26 26.74626 -144.42601 40118 ft 454 kts 250°
2026-04-24 21:26 26.71954 -144.49016 40117 ft 454 kts 249°
2026-04-24 21:27 26.69284 -144.55415 40118 ft 456 kts 249°
2026-04-24 21:27 26.66606 -144.61826 40115 ft 456 kts 249°
2026-04-24 21:28 26.63924 -144.68236 40116 ft 457 kts 249°
2026-04-24 21:28 26.61238 -144.74643 40114 ft 456 kts 249°
2026-04-24 21:29 26.58549 -144.81047 40102 ft 457 kts 249°
2026-04-24 21:29 26.55843 -144.87482 40108 ft 457 kts 249°
2026-04-24 21:30 26.53153 -144.93870 40109 ft 457 kts 249°
2026-04-24 21:30 26.50448 -145.00290 40106 ft 457 kts 249°
2026-04-24 21:31 26.47738 -145.06705 40101 ft 457 kts 249°
2026-04-24 21:31 26.45030 -145.13110 40101 ft 458 kts 249°
2026-04-24 21:32 26.42318 -145.19510 40102 ft 459 kts 249°
2026-04-24 21:32 26.39581 -145.25961 40092 ft 459 kts 249°
2026-04-24 21:33 26.36857 -145.32370 40089 ft 459 kts 249°
2026-04-24 21:33 26.34122 -145.38802 40093 ft 460 kts 249°
2026-04-24 21:34 26.31385 -145.45224 40087 ft 460 kts 249°
2026-04-24 21:34 26.28655 -145.51614 40092 ft 460 kts 249°
2026-04-24 21:35 26.25906 -145.58046 40093 ft 460 kts 249°
2026-04-24 21:35 26.23167 -145.64442 40078 ft 460 kts 249°
2026-04-24 21:36 26.20405 -145.70883 40093 ft 462 kts 248°
2026-04-24 21:36 26.17641 -145.77324 40088 ft 462 kts 248°
2026-04-24 21:37 26.14882 -145.83737 40088 ft 462 kts 248°
2026-04-24 21:37 26.12110 -145.90172 40083 ft 461 kts 248°
2026-04-24 21:38 26.09346 -145.96579 40083 ft 460 kts 248°
2026-04-24 21:38 26.06570 -146.03006 40083 ft 461 kts 248°
2026-04-24 21:39 26.03808 -146.09389 40092 ft 461 kts 248°
2026-04-24 21:39 26.01016 -146.15837 40084 ft 461 kts 248°
2026-04-24 21:40 25.98250 -146.22215 40091 ft 461 kts 248°
2026-04-24 21:40 25.95462 -146.28639 40083 ft 462 kts 248°
2026-04-24 21:41 25.92679 -146.35046 40077 ft 462 kts 248°
2026-04-24 21:41 25.89872 -146.41492 40087 ft 463 kts 248°
2026-04-24 21:42 25.87082 -146.47896 40080 ft 463 kts 248°
2026-04-24 21:42 25.84287 -146.54301 40078 ft 463 kts 248°
2026-04-24 21:43 25.81474 -146.60739 40090 ft 463 kts 248°
2026-04-24 21:43 25.78663 -146.67162 40073 ft 463 kts 247°
2026-04-24 21:44 25.75849 -146.73578 40077 ft 464 kts 248°
2026-04-24 21:44 25.73038 -146.79980 40080 ft 464 kts 248°
2026-04-24 21:45 25.70221 -146.86392 40073 ft 464 kts 248°
2026-04-24 21:45 25.67391 -146.92819 40074 ft 465 kts 248°
2026-04-24 21:46 25.64544 -146.99274 40073 ft 465 kts 248°
2026-04-24 21:46 25.63131 -147.02475 39820 ft 466 kts 248°
2026-04-24 21:46 25.61703 -147.05707 39515 ft 466 kts 248°
2026-04-24 21:46 25.60279 -147.08929 39214 ft 467 kts 248°
2026-04-24 21:47 25.58865 -147.12128 39074 ft 468 kts 247°
2026-04-24 21:47 25.55996 -147.18605 39078 ft 469 kts 248°
2026-04-24 21:48 25.53127 -147.25075 39074 ft 470 kts 247°
2026-04-24 21:48 25.50242 -147.31569 39078 ft 470 kts 247°
2026-04-24 21:49 25.47364 -147.38039 39074 ft 471 kts 247°
2026-04-24 21:49 25.44463 -147.44550 39071 ft 471 kts 248°
2026-04-24 21:50 25.41578 -147.51016 39078 ft 471 kts 247°
2026-04-24 21:50 25.38675 -147.57515 39085 ft 471 kts 247°
2026-04-24 21:51 25.35773 -147.63998 39075 ft 470 kts 247°
2026-04-24 21:51 25.32871 -147.70479 39076 ft 472 kts 247°
2026-04-24 21:52 25.29957 -147.76971 39078 ft 472 kts 247°
2026-04-24 21:52 25.27057 -147.83426 39080 ft 473 kts 247°
2026-04-24 21:53 25.24129 -147.89929 39083 ft 473 kts 247°
2026-04-24 21:53 25.21208 -147.96411 39083 ft 473 kts 247°
2026-04-24 21:54 25.18287 -148.02882 39086 ft 473 kts 246°
2026-04-24 21:54 25.15346 -148.09383 39081 ft 472 kts 247°
2026-04-24 21:55 25.12424 -148.15839 39079 ft 472 kts 247°
2026-04-24 21:55 25.09494 -148.22301 39081 ft 472 kts 247°
2026-04-24 21:56 25.06551 -148.28787 39080 ft 472 kts 247°
2026-04-24 21:56 25.03614 -148.35251 39079 ft 472 kts 246°
2026-04-24 21:57 25.00670 -148.41717 39080 ft 473 kts 246°
2026-04-24 21:57 24.97722 -148.48181 39076 ft 473 kts 246°
2026-04-24 21:58 24.94766 -148.54649 39073 ft 473 kts 246°
2026-04-24 21:58 24.91807 -148.61122 39073 ft 473 kts 246°
2026-04-24 21:59 24.88857 -148.67567 39077 ft 472 kts 246°
2026-04-24 21:59 24.85917 -148.73982 39069 ft 472 kts 246°
2026-04-24 22:00 24.82963 -148.80417 39071 ft 471 kts 246°
2026-04-24 22:00 24.80001 -148.86853 39074 ft 471 kts 246°
2026-04-24 22:01 24.77034 -148.93295 39075 ft 472 kts 246°
2026-04-24 22:01 24.74069 -148.99725 39069 ft 472 kts 246°
2026-04-24 22:02 24.71105 -149.06145 39072 ft 472 kts 246°
2026-04-24 22:02 24.68149 -149.12540 39068 ft 472 kts 246°
2026-04-24 22:03 24.65165 -149.18983 39076 ft 471 kts 246°
2026-04-24 22:03 24.62205 -149.25365 39072 ft 471 kts 246°
2026-04-24 22:04 24.59227 -149.31776 39061 ft 471 kts 246°
2026-04-24 22:04 24.56258 -149.38165 39062 ft 470 kts 246°
2026-04-24 22:05 24.53297 -149.44527 39065 ft 471 kts 246°
2026-04-24 22:05 24.50306 -149.50937 39066 ft 470 kts 246°
2026-04-24 22:06 24.47342 -149.57285 39061 ft 470 kts 246°
2026-04-24 22:06 24.44353 -149.63678 39060 ft 470 kts 246°
2026-04-24 22:07 24.41379 -149.70029 39061 ft 469 kts 245°
2026-04-24 22:07 24.38392 -149.76402 39054 ft 469 kts 245°
2026-04-24 22:08 24.35429 -149.82713 39055 ft 469 kts 245°
2026-04-24 22:08 24.32434 -149.89084 39053 ft 469 kts 245°
2026-04-24 22:09 24.29459 -149.95403 39049 ft 469 kts 245°
2026-04-24 22:09 24.26481 -150.01723 39046 ft 468 kts 245°
2026-04-24 22:10 24.23480 -150.08079 39055 ft 468 kts 245°
2026-04-24 22:10 24.20492 -150.14403 39043 ft 468 kts 245°
2026-04-24 22:11 24.17507 -150.20706 39041 ft 468 kts 245°
2026-04-24 22:11 24.14518 -150.27013 39047 ft 468 kts 245°
2026-04-24 22:12 24.11504 -150.33366 39039 ft 469 kts 245°
2026-04-24 22:12 24.08506 -150.39674 39035 ft 468 kts 245°
2026-04-24 22:13 24.05517 -150.45960 39039 ft 468 kts 245°
2026-04-24 22:13 24.02515 -150.52260 39040 ft 469 kts 245°
2026-04-24 22:14 23.99502 -150.58572 39041 ft 469 kts 245°
2026-04-24 22:14 23.96487 -150.64883 39032 ft 469 kts 245°
2026-04-24 22:15 23.93470 -150.71191 39045 ft 469 kts 245°
2026-04-24 22:15 23.90456 -150.77484 39028 ft 468 kts 245°
2026-04-24 22:16 23.87434 -150.83786 39022 ft 468 kts 245°
2026-04-24 22:16 23.84427 -150.90048 39037 ft 468 kts 245°
2026-04-24 22:17 23.81411 -150.96320 39021 ft 468 kts 245°
2026-04-24 22:17 23.78373 -151.02631 39032 ft 468 kts 245°
2026-04-24 22:18 23.75363 -151.08873 39044 ft 468 kts 245°
2026-04-24 22:18 23.72333 -151.15149 39038 ft 467 kts 245°
2026-04-24 22:19 23.69299 -151.21425 39045 ft 467 kts 245°
2026-04-24 22:19 23.66282 -151.27660 39049 ft 466 kts 245°
2026-04-24 22:20 23.63249 -151.33919 39047 ft 467 kts 245°
2026-04-24 22:20 23.60238 -151.40122 39043 ft 466 kts 245°
2026-04-24 22:21 23.57208 -151.46355 39043 ft 466 kts 245°
2026-04-24 22:21 23.54184 -151.52574 39051 ft 466 kts 245°
2026-04-24 22:22 23.51145 -151.58812 39040 ft 466 kts 245°
2026-04-24 22:22 23.48111 -151.65031 39036 ft 465 kts 244°
2026-04-24 22:23 23.45094 -151.71208 39044 ft 464 kts 244°
2026-04-24 22:23 23.42056 -151.77420 39050 ft 464 kts 244°
2026-04-24 22:24 23.39028 -151.83609 39061 ft 463 kts 244°
2026-04-24 22:24 23.35996 -151.89793 39067 ft 464 kts 244°
2026-04-24 22:25 23.32972 -151.95955 39059 ft 463 kts 244°
2026-04-24 22:25 23.29954 -152.02095 39059 ft 463 kts 244°
2026-04-24 22:26 23.26908 -152.08284 39064 ft 463 kts 244°
2026-04-24 22:26 23.23875 -152.14444 39056 ft 463 kts 244°
2026-04-24 22:27 23.20845 -152.20586 39064 ft 462 kts 244°
2026-04-24 22:27 23.17806 -152.26737 39070 ft 462 kts 244°
2026-04-24 22:28 23.14789 -152.32838 39054 ft 462 kts 244°
2026-04-24 22:28 23.11748 -152.38983 39060 ft 461 kts 244°
2026-04-24 22:29 23.07184 -152.48184 39067 ft 461 kts 244°
2026-04-24 22:29 23.04155 -152.54283 39051 ft 462 kts 244°
2026-04-24 22:30 23.01104 -152.60405 39048 ft 462 kts 244°
2026-04-24 22:30 22.98042 -152.66507 39047 ft 461 kts 244°
2026-04-24 22:31 22.94980 -152.72601 39066 ft 460 kts 244°
2026-04-24 22:31 22.91923 -152.78683 39052 ft 461 kts 244°
2026-04-24 22:32 22.88863 -152.84767 39060 ft 460 kts 244°
2026-04-24 22:32 22.85804 -152.90842 39043 ft 460 kts 244°
2026-04-24 22:33 22.82751 -152.96895 39068 ft 459 kts 244°
2026-04-24 22:33 22.79691 -153.02957 39043 ft 459 kts 244°
2026-04-24 22:34 22.76633 -153.09006 39043 ft 459 kts 244°
2026-04-24 22:34 22.73572 -153.15054 39060 ft 460 kts 244°
2026-04-24 22:35 22.70498 -153.21121 39049 ft 459 kts 244°
2026-04-24 22:35 22.67421 -153.27185 39049 ft 459 kts 244°
2026-04-24 22:36 22.64363 -153.33203 39057 ft 458 kts 244°
2026-04-24 22:36 22.61296 -153.39238 39059 ft 457 kts 244°
2026-04-24 22:37 22.58237 -153.45244 39079 ft 457 kts 244°
2026-04-24 22:37 22.55165 -153.51271 39054 ft 457 kts 244°
2026-04-24 22:38 22.52087 -153.57303 39044 ft 458 kts 244°
2026-04-24 22:38 22.49027 -153.63292 39066 ft 457 kts 244°
2026-04-24 22:39 22.45947 -153.69315 39062 ft 457 kts 244°
2026-04-24 22:39 22.42881 -153.75305 39055 ft 457 kts 244°
2026-04-24 22:40 22.39799 -153.81317 39044 ft 458 kts 244°
2026-04-24 22:40 22.36721 -153.87303 39053 ft 458 kts 243°
2026-04-24 22:41 22.33415 -153.93181 39066 ft 458 kts 241°
2026-04-24 22:41 22.30072 -153.99039 39061 ft 459 kts 241°
2026-04-24 22:42 22.26737 -154.04877 39055 ft 458 kts 241°
2026-04-24 22:42 22.23407 -154.10700 39072 ft 452 kts 241°
2026-04-24 22:43 22.21748 -154.13597 38954 ft 448 kts 242°
2026-04-24 22:43 22.20123 -154.16432 38649 ft 440 kts 242°
2026-04-24 22:43 22.18532 -154.19209 38386 ft 436 kts 241°
2026-04-24 22:43 22.16941 -154.21991 38113 ft 438 kts 241°
2026-04-24 22:44 22.15342 -154.24783 37845 ft 439 kts 241°
2026-04-24 22:44 22.13743 -154.27573 37596 ft 440 kts 241°
2026-04-24 22:44 22.12133 -154.30377 37338 ft 442 kts 241°
2026-04-24 22:44 22.10505 -154.33214 37088 ft 444 kts 241°
2026-04-24 22:45 22.08879 -154.36046 36840 ft 446 kts 241°
2026-04-24 22:45 22.07266 -154.38852 36587 ft 448 kts 240°
2026-04-24 22:45 22.05605 -154.41739 36324 ft 450 kts 240°
2026-04-24 22:45 22.03952 -154.44609 36069 ft 451 kts 240°
2026-04-24 22:46 22.02315 -154.47452 35810 ft 453 kts 240°
2026-04-24 22:46 22.00648 -154.50349 35563 ft 455 kts 240°
2026-04-24 22:46 21.98978 -154.53245 35301 ft 457 kts 240°
2026-04-24 22:46 21.97285 -154.56180 34901 ft 461 kts 239°
2026-04-24 22:47 21.95606 -154.59116 34017 ft 469 kts 240°
2026-04-24 22:47 21.94008 -154.62172 33075 ft 476 kts 242°
2026-04-24 22:47 21.92410 -154.65341 32371 ft 478 kts 242°
2026-04-24 22:47 21.90827 -154.68483 31584 ft 482 kts 242°
2026-04-24 22:48 21.89233 -154.71649 30771 ft 486 kts 242°
2026-04-24 22:48 21.87615 -154.74861 29911 ft 491 kts 242°
2026-04-24 22:48 21.85994 -154.78078 29094 ft 494 kts 242°
2026-04-24 22:48 21.84452 -154.81134 28513 ft 493 kts 242°
2026-04-24 22:49 21.82820 -154.84364 27855 ft 492 kts 242°
2026-04-24 22:49 21.81198 -154.87576 27182 ft 491 kts 242°
2026-04-24 22:49 21.79559 -154.90819 26513 ft 489 kts 242°
2026-04-24 22:49 21.77942 -154.94016 25803 ft 489 kts 242°
2026-04-24 22:50 21.76320 -154.97221 25127 ft 484 kts 242°
2026-04-24 22:50 21.74753 -155.00314 24499 ft 470 kts 242°
2026-04-24 22:50 21.73204 -155.03371 24080 ft 464 kts 243°
2026-04-24 22:50 21.71658 -155.06422 23624 ft 459 kts 243°
2026-04-24 22:51 21.70150 -155.09398 23197 ft 453 kts 243°
2026-04-24 22:51 21.68643 -155.12370 22782 ft 448 kts 243°
2026-04-24 22:51 21.67181 -155.15251 22372 ft 443 kts 243°
2026-04-24 22:51 21.65712 -155.18144 21936 ft 439 kts 243°
2026-04-24 22:52 21.64252 -155.21019 21483 ft 435 kts 243°
2026-04-24 22:52 21.62804 -155.23869 21047 ft 432 kts 243°
2026-04-24 22:52 21.61383 -155.26663 20608 ft 429 kts 243°
2026-04-24 22:52 21.59960 -155.29459 20166 ft 426 kts 243°
2026-04-24 22:53 21.58548 -155.32231 19721 ft 423 kts 243°
2026-04-24 22:53 21.57145 -155.34987 19282 ft 420 kts 243°
2026-04-24 22:53 21.55736 -155.37750 18841 ft 418 kts 243°
2026-04-24 22:53 21.54351 -155.40468 18401 ft 416 kts 243°
2026-04-24 22:54 21.52955 -155.43202 17952 ft 414 kts 243°
2026-04-24 22:54 21.51596 -155.45865 17521 ft 411 kts 243°
2026-04-24 22:54 21.50217 -155.48564 17082 ft 409 kts 243°
2026-04-24 22:54 21.48858 -155.51219 16660 ft 407 kts 243°
2026-04-24 22:55 21.47500 -155.53873 16237 ft 405 kts 243°
2026-04-24 22:55 21.46149 -155.56514 15807 ft 403 kts 243°
2026-04-24 22:55 21.44798 -155.59152 15379 ft 400 kts 243°
2026-04-24 22:55 21.43464 -155.61758 14953 ft 398 kts 243°
2026-04-24 22:56 21.42143 -155.64337 14533 ft 396 kts 243°
2026-04-24 22:56 21.40817 -155.66925 14107 ft 394 kts 243°
2026-04-24 22:56 21.39498 -155.69496 13676 ft 391 kts 243°
2026-04-24 22:56 21.38186 -155.72052 13244 ft 390 kts 243°
2026-04-24 22:57 21.36885 -155.74587 12814 ft 388 kts 243°
2026-04-24 22:57 21.35601 -155.77090 12395 ft 385 kts 243°
2026-04-24 22:57 21.34303 -155.79617 11974 ft 383 kts 243°
2026-04-24 22:57 21.33028 -155.82100 11560 ft 380 kts 244°
2026-04-24 22:58 21.31766 -155.84554 11140 ft 378 kts 243°
2026-04-24 22:58 21.30500 -155.87016 10713 ft 376 kts 243°
2026-04-24 22:58 21.29254 -155.89438 10494 ft 367 kts 243°
2026-04-24 22:58 21.28047 -155.91780 10398 ft 354 kts 243°
2026-04-24 22:59 21.26863 -155.94075 10301 ft 343 kts 244°
2026-04-24 22:59 21.25730 -155.96271 10211 ft 332 kts 244°
2026-04-24 22:59 21.23572 -156.00456 10064 ft 311 kts 244°
2026-04-24 23:00 21.22540 -156.02455 10010 ft 300 kts 244°
2026-04-24 23:00 21.21552 -156.04369 9963 ft 290 kts 244°
2026-04-24 23:00 21.20582 -156.06251 9705 ft 289 kts 244°
2026-04-24 23:00 21.19601 -156.08154 9414 ft 289 kts 244°
2026-04-24 23:01 21.18637 -156.10025 9137 ft 288 kts 244°
2026-04-24 23:01 21.17618 -156.11844 8950 ft 285 kts 235°
2026-04-24 23:01 21.16249 -156.13390 8824 ft 283 kts 221°
2026-04-24 23:01 21.14675 -156.14664 8507 ft 286 kts 217°
2026-04-24 23:02 21.13040 -156.15895 8211 ft 287 kts 216°
2026-04-24 23:02 21.11405 -156.17120 7933 ft 287 kts 217°
2026-04-24 23:02 21.09779 -156.18349 7700 ft 284 kts 217°
2026-04-24 23:02 21.08169 -156.19577 7501 ft 281 kts 217°
2026-04-24 23:03 21.06581 -156.20793 7305 ft 277 kts 217°
2026-04-24 23:03 21.05033 -156.21982 7137 ft 273 kts 217°
2026-04-24 23:03 21.03482 -156.23173 6987 ft 269 kts 217°
2026-04-24 23:03 21.01989 -156.24321 6929 ft 261 kts 216°
2026-04-24 23:04 21.00496 -156.25456 6649 ft 263 kts 216°
2026-04-24 23:04 20.99012 -156.26579 6479 ft 260 kts 216°
2026-04-24 23:04 20.97531 -156.27699 6217 ft 257 kts 216°
2026-04-24 23:04 20.96097 -156.28786 5977 ft 254 kts 216°
2026-04-24 23:05 20.94628 -156.29897 5724 ft 255 kts 216°
2026-04-24 23:05 20.93171 -156.31001 5515 ft 255 kts 216°
2026-04-24 23:05 20.91737 -156.32086 5379 ft 252 kts 216°
2026-04-24 23:05 20.90314 -156.33165 5241 ft 248 kts 216°
2026-04-24 23:06 20.88915 -156.34221 5071 ft 246 kts 215°
2026-04-24 23:06 20.87522 -156.35257 5018 ft 239 kts 215°
2026-04-24 23:06 20.86144 -156.36273 5006 ft 238 kts 215°
2026-04-24 23:06 20.84787 -156.37274 5010 ft 237 kts 215°
2026-04-24 23:07 20.83433 -156.38275 5011 ft 238 kts 215°
2026-04-24 23:07 20.82059 -156.39291 5019 ft 238 kts 215°
2026-04-24 23:07 20.80694 -156.40300 5021 ft 238 kts 215°
2026-04-24 23:07 20.79331 -156.41307 5008 ft 237 kts 215°
2026-04-24 23:08 20.77973 -156.42310 4998 ft 237 kts 215°
2026-04-24 23:08 20.76617 -156.43311 4993 ft 237 kts 215°
2026-04-24 23:08 20.75240 -156.44331 4985 ft 238 kts 215°
2026-04-24 23:08 20.73895 -156.45332 4972 ft 238 kts 215°
2026-04-24 23:09 20.72534 -156.46346 4969 ft 237 kts 215°
2026-04-24 23:09 20.71164 -156.47365 4951 ft 237 kts 215°
2026-04-24 23:09 20.69815 -156.48366 4944 ft 237 kts 215°
2026-04-24 23:09 20.68447 -156.49383 4943 ft 238 kts 215°
2026-04-24 23:10 20.67150 -156.50478 4924 ft 237 kts 233°
2026-04-24 23:10 20.66552 -156.52061 4696 ft 235 kts 272°
2026-04-24 23:10 20.66997 -156.53668 4495 ft 225 kts 307°
2026-04-24 23:10 20.67924 -156.54996 4336 ft 220 kts 310°
2026-04-24 23:11 20.68859 -156.56271 4134 ft 215 kts 317°
2026-04-24 23:11 20.70114 -156.56984 3899 ft 202 kts 359°
2026-04-24 23:11 20.71386 -156.56670 3860 ft 179 kts 28°
2026-04-24 23:11 20.72396 -156.56001 3819 ft 164 kts 35°
2026-04-24 23:12 20.73324 -156.55292 3632 ft 163 kts 37°
2026-04-24 23:12 20.74248 -156.54576 3420 ft 162 kts 37°
2026-04-24 23:12 20.75168 -156.53871 3205 ft 162 kts 36°
2026-04-24 23:12 20.76083 -156.53181 2994 ft 159 kts 36°
2026-04-24 23:13 20.76992 -156.52501 2788 ft 160 kts 36°
2026-04-24 23:13 20.77903 -156.51823 2572 ft 160 kts 36°
2026-04-24 23:13 20.78819 -156.51143 2369 ft 158 kts 36°
2026-04-24 23:13 20.79712 -156.50479 2160 ft 152 kts 36°
2026-04-24 23:14 20.80563 -156.49847 1965 ft 146 kts 36°
2026-04-24 23:14 20.81396 -156.49228 1788 ft 147 kts 36°
2026-04-24 23:14 20.82237 -156.48602 1613 ft 147 kts 36°
2026-04-24 23:14 20.83080 -156.47975 1438 ft 146 kts 35°
2026-04-24 23:15 20.83916 -156.47353 1255 ft 146 kts 35°
2026-04-24 23:15 20.84759 -156.46725 1069 ft 145 kts 35°
2026-04-24 23:15 20.85596 -156.46101 881 ft 145 kts 34°
2026-04-24 23:15 20.86431 -156.45480 692 ft 145 kts 34°
2026-04-24 23:16 20.87262 -156.44861 507 ft 144 kts 34°
2026-04-24 23:16 20.88090 -156.44244 314 ft 142 kts 34°
2026-04-24 23:16 20.88885 -156.43654 118 ft 137 kts 34°
2026-04-24 23:16 20.89611 -156.43115 84 ft 98 kts 31°
2026-04-24 23:17 20.89938 -156.42880 84 ft 21 kts 20°
2026-04-24 23:17 20.90013 -156.42932 84 ft 13 kts 266°
2026-04-24 23:17 20.89961 -156.43012 84 ft 13 kts 219°
2026-04-24 23:17 20.89879 -156.43076 84 ft 15 kts 215°
2026-04-24 23:18 20.89789 -156.43143 84 ft 16 kts 215°
2026-04-24 23:18 20.89694 -156.43214 84 ft 17 kts 215°
2026-04-24 23:18 20.89594 -156.43289 84 ft 17 kts 215°
2026-04-24 23:18 20.89490 -156.43364 84 ft 18 kts 213°
2026-04-24 23:19 20.89383 -156.43445 83 ft 18 kts 215°
2026-04-24 23:19 20.89282 -156.43521 83 ft 8 kts 223°
2026-04-24 23:19 20.89285 -156.43571 83 ft 6 kts 313°
2026-04-24 23:19 20.89304 -156.43602 83 ft 5 kts 302°
2026-04-24 23:20 20.89323 -156.43631 83 ft 1 kts 305°
2026-04-24 23:20 20.89325 -156.43636 83 ft 0 kts 306°